N1OTX Weather Reports


time (UTC)temp
C
wind
direction
speed
KPH
gust
KPH
rain 1hr
cm
rain 24hr
cm
rain mn
cm
humidity
%
barometer
mb
20210920041016 12 0.0 0.0 0.00 0.56 0.00 86 1023.8
20210920040516 12 0.0 0.0 0.00 0.56 0.00 86 1023.9
20210920040016 12 0.0 0.0 0.00 0.56 0.56 86 1023.7
20210920035516 12 0.0 0.0 0.00 0.56 0.56 86 1023.7
20210920035016 12 0.0 0.0 0.00 0.56 0.56 85 1023.7
20210920034516 12 0.0 0.0 0.00 0.56 0.56 85 1023.7
20210920034016 12 0.0 0.0 0.00 0.56 0.56 85 1023.6
20210920033516 12 0.0 0.0 0.00 0.56 0.56 85 1023.6
20210920033016 12 0.0 0.0 0.00 0.56 0.56 85 1023.5
20210920032516 12 0.0 0.0 0.00 0.56 0.56 85 1023.4
20210920032016 12 0.0 0.0 0.00 0.56 0.56 85 1023.3
20210920031516 12 0.0 0.0 0.00 0.56 0.56 85 1023.3
20210920031016 12 0.0 0.0 0.00 0.56 0.56 84 1023.3
20210920030516 13 0.0 0.0 0.00 0.56 0.56 84 1023.2
20210920030016 13 0.0 0.0 0.00 0.69 0.56 84 1023.2
20210920025516 13 0.0 0.0 0.00 0.69 0.56 84 1023.2
20210920025016 13 0.0 0.0 0.00 0.69 0.56 84 1023.2
20210920024516 13 0.0 0.0 0.00 0.69 0.56 84 1023.2
20210920024016 13 0.0 0.0 0.00 0.69 0.56 84 1023.3
20210920023516 13 0.0 0.0 0.00 0.69 0.56 84 1023.3
20210920023016 13 0.0 0.0 0.00 0.69 0.56 83 1023.3
20210920022516 13 0.0 0.0 0.00 0.69 0.56 83 1023.3
20210920022016 13 0.0 0.0 0.00 0.69 0.56 83 1023.3
20210920021516 13 0.0 0.0 0.00 0.69 0.56 83 1023.2
20210920021016 13 0.0 0.0 0.00 0.69 0.56 83 1023.2
20210920020516 13 0.0 0.0 0.00 0.69 0.56 83 1023.2
20210920020016 13 0.0 0.0 0.00 0.74 0.56 82 1023.0
20210920015516 13 0.0 0.0 0.00 0.74 0.56 82 1023.0
20210920015016 13 0.0 0.0 0.00 0.74 0.56 82 1023.0
20210920014516 13 0.0 0.0 0.00 0.74 0.56 82 1023.0
20210920014016 13 0.0 0.0 0.00 0.74 0.56 82 1022.9
20210920013516 14 0.0 0.0 0.00 0.74 0.56 82 1022.9
20210920013016 14 0.0 0.0 0.00 0.74 0.56 82 1022.8
20210920012516 14 0.0 0.0 0.00 0.74 0.56 82 1022.8
20210920012016 14 0.0 0.0 0.00 0.74 0.56 82 1022.8
20210920011515 14 0.0 0.0 0.00 0.74 0.56 82 1022.7
20210920011015 14 0.0 0.0 0.00 0.74 0.56 82 1022.7
20210920010516 14 0.0 0.0 0.00 0.74 0.56 82 1022.6
20210920010016 14 0.0 0.0 0.00 0.74 0.56 82 1022.5
20210920005516 14 0.0 0.0 0.00 0.74 0.56 82 1022.5
20210920005016 14 0.0 0.0 0.00 0.74 0.56 82 1022.5
20210920004516 14 0.0 0.0 0.00 0.74 0.56 82 1022.4
20210920004016 14 0.0 0.0 0.00 0.74 0.56 82 1022.3
20210920003515 14 0.0 0.0 0.00 0.74 0.56 83 1022.3
20210920003016 14 0.0 0.0 0.00 0.74 0.56 82 1022.2
20210920002516 15 0.0 0.0 0.00 0.74 0.56 82 1022.0
20210920002016 15 0.0 0.0 0.00 0.74 0.56 82 1022.0
20210920001515 15 0.0 0.0 0.00 0.74 0.56 82 1021.9
20210920001016 15 0.0 0.0 0.00 0.74 0.56 82 1021.7
20210920000516 15 0.0 0.0 0.00 0.74 0.56 82 1021.7
20210920000015 15 0.0 0.0 0.00 0.74 0.56 80 1021.6
20210919235516 15 0.0 0.0 0.00 0.74 0.56 81 1021.6
20210919235016 15 0.0 0.0 0.00 0.74 0.56 82 1021.5
20210919234516 15 0.0 0.0 0.00 0.74 0.56 81 1021.5
20210919234016 15 0.0 0.0 0.00 0.74 0.56 79 1021.4
20210919233516 16 0.0 0.0 0.00 0.74 0.56 79 1021.3
20210919233015 16 0.0 0.0 0.00 0.74 0.56 79 1021.3
20210919232515 16 0.0 0.0 0.00 0.74 0.56 79 1021.1
20210919232015 16 0.0 0.0 0.00 0.74 0.56 81 1021.1
20210919231515 16 0.0 0.0 0.00 0.74 0.56 81 1021.0
20210919231015 16 0.0 0.0 0.00 0.74 0.56 81 1020.9
20210919230515 16 0.0 0.0 0.00 0.74 0.56 81 1020.8
20210919230015 16 0.0 0.0 0.00 0.74 0.56 83 1020.7
20210919225515 17 0.0 0.0 0.00 0.74 0.56 82 1020.6
20210919225016 17 0.0 0.0 0.00 0.74 0.56 81 1020.6
20210919224515 17 0.0 0.0 0.00 0.74 0.56 80 1020.5
20210919224015 17 0.0 0.0 0.00 0.74 0.56 80 1020.5
20210919223515 17 0.0 0.0 0.00 0.74 0.56 79 1020.5
20210919223015 17 0.0 0.0 0.00 0.74 0.56 77 1020.4
20210919222515 17 0.0 0.0 0.00 0.74 0.56 79 1020.4
20210919222015 17 0.0 0.0 0.00 0.74 0.56 81 1020.4
20210919221515 17 0.0 0.0 0.00 0.74 0.56 81 1020.4
20210919221015 18 0.0 0.0 0.00 0.74 0.56 78 1020.4
20210919220515 18 0.0 0.0 0.00 0.74 0.56 76 1020.4
20210919220016 18 331 0.0 0.0 0.00 0.74 0.56 76 1020.4
20210919215515 18 0.0 1.6 0.00 0.74 0.56 76 1020.4
20210919215016 18 0.0 1.6 0.00 0.74 0.56 76 1020.4
20210919214515 18 0.0 3.2 0.00 0.74 0.56 74 1020.4
20210919214015 18 0.0 0.0 0.00 0.74 0.56 74 1020.3
20210919213515 18 0.0 0.0 0.00 0.74 0.56 74 1020.2
20210919213015 18 0.0 1.6 0.00 0.74 0.56 74 1020.2
20210919212515 18 0.0 3.2 0.00 0.74 0.56 73 1020.1
20210919212015 18 0.0 3.2 0.00 0.74 0.56 73 1020.1
20210919211515 19 338 1.6 4.8 0.00 0.74 0.56 70 1020.0
20210919211015 20 338 1.6 3.2 0.00 0.74 0.56 70 1020.0
20210919210515 20 315 1.6 3.2 0.00 0.74 0.56 67 1019.9
20210919210015 20 315 1.6 3.2 0.00 0.74 0.56 67 1019.8
20210919205515 20 293 1.6 4.8 0.00 0.74 0.56 62 1019.8
20210919205015 20 0.0 3.2 0.00 0.74 0.56 67 1019.7
20210919204515 20 248 1.6 9.7 0.00 0.74 0.56 66 1019.7
20210919204015 21 23 3.2 4.8 0.00 0.74 0.56 61 1019.7
20210919203515 20 23 1.6 3.2 0.00 0.74 0.56 63 1019.7
20210919203015 20 0.0 3.2 0.00 0.74 0.56 70 1019.6
20210919202515 21 23 1.6 4.8 0.00 0.74 0.56 65 1019.6
20210919202015 20 90 1.6 3.2 0.00 0.74 0.56 64 1019.7
20210919201515 21 68 1.6 6.4 0.00 0.74 0.56 57 1019.6
20210919201015 21 338 1.6 4.8 0.00 0.74 0.56 60 1019.6
20210919200515 21 203 1.6 3.2 0.00 0.74 0.56 61 1019.7
20210919200015 21 0.0 3.2 0.00 0.74 0.56 65 1019.7
20210919195515 21 293 3.2 9.7 0.00 0.74 0.56 61 1019.7
20210919195015 21 158 1.6 4.8 0.00 0.74 0.56 61 1019.8
20210919194515 21 180 3.2 6.4 0.00 0.74 0.56 56 1019.8
20210919194015 21 225 1.6 8.0 0.00 0.74 0.56 62 1019.9
20210919193515 21 315 1.6 4.8 0.00 0.74 0.56 59 1019.9
20210919193015 21 0.0 1.6 0.00 0.74 0.56 60 1019.9
20210919192515 21 315 1.6 6.4 0.00 0.74 0.56 59 1019.9
20210919192015 21 0 1.6 4.8 0.00 0.74 0.56 57 1020.0
20210919191515 21 0.0 3.2 0.00 0.74 0.56 61 1020.0
20210919191015 21 338 1.6 6.4 0.00 0.74 0.56 59 1020.0
20210919190515 22 315 3.2 8.0 0.00 0.74 0.56 57 1020.0
20210919190015 22 45 3.2 9.7 0.00 0.74 0.56 56 1019.9
20210919185515 21 23 1.6 4.8 0.00 0.74 0.56 57 1020.0
20210919185015 21 338 3.2 6.4 0.00 0.74 0.56 53 1020.1
20210919184515 21 338 1.6 6.4 0.00 0.74 0.56 59 1020.1
20210919184015 21 338 1.6 6.4 0.00 0.74 0.56 60 1020.1
20210919183515 21 338 1.6 4.8 0.00 0.74 0.56 55 1020.0
20210919183015 21 315 1.6 4.8 0.00 0.74 0.56 57 1020.0
20210919182515 21 338 1.6 4.8 0.00 0.74 0.56 60 1020.1
20210919182015 21 23 1.6 4.8 0.00 0.74 0.56 59 1020.2
20210919181515 21 23 3.2 9.7 0.00 0.74 0.56 56 1020.2
20210919181015 21 23 3.2 11.3 0.00 0.74 0.56 55 1020.3
20210919180515 21 23 3.2 8.0 0.00 0.74 0.56 55 1020.4
20210919180015 21 315 3.2 11.3 0.00 0.74 0.56 58 1020.4
20210919175515 21 68 1.6 8.0 0.00 0.74 0.56 58 1020.4
20210919175015 21 338 3.2 6.4 0.00 0.74 0.56 58 1020.5
20210919174515 21 0 4.8 12.9 0.00 0.74 0.56 57 1020.5
20210919174015 21 315 1.6 6.4 0.00 0.74 0.56 57 1020.4
20210919173515 21 90 4.8 11.3 0.00 0.74 0.56 64 1020.4
20210919173015 21 338 1.6 11.3 0.00 0.74 0.56 61 1020.4
20210919172515 21 293 1.6 3.2 0.00 0.74 0.56 63 1020.4
20210919172015 21 23 1.6 6.4 0.00 0.74 0.56 58 1020.5
20210919171515 21 90 1.6 4.8 0.00 0.74 0.56 61 1020.5
20210919171015 21 338 3.2 17.7 0.00 0.74 0.56 61 1020.6
20210919170515 21 45 1.6 11.3 0.00 0.74 0.56 67 1020.7
20210919170015 21 90 3.2 6.4 0.00 0.74 0.56 60 1020.7
20210919165515 21 23 3.2 16.1 0.00 0.74 0.56 58 1020.7
20210919165015 21 113 3.2 12.9 0.00 0.74 0.56 55 1020.8
20210919164515 21 23 3.2 11.3 0.00 0.74 0.56 58 1020.9
20210919164015 20 315 4.8 9.7 0.00 0.74 0.56 60 1020.9
20210919163515 21 0 3.2 9.7 0.00 0.74 0.56 60 1020.9
20210919163015 21 23 3.2 6.4 0.00 0.74 0.56 63 1020.9
20210919162515 21 0 3.2 9.7 0.00 0.74 0.56 61 1020.9
20210919162015 21 113 4.8 14.5 0.00 0.74 0.56 64 1020.9
20210919161515 20 338 1.6 6.4 0.00 0.74 0.56 65 1020.9
20210919161015 20 338 3.2 6.4 0.00 0.74 0.56 63 1020.9
20210919160515 20 23 3.2 6.4 0.00 0.74 0.56 64 1020.9
20210919160015 20 338 3.2 8.0 0.00 0.74 0.56 63 1020.9
20210919155515 20 23 3.2 9.7 0.00 0.74 0.56 63 1020.9
20210919155015 20 45 3.2 17.7 0.00 0.74 0.56 61 1020.9
20210919154515 20 338 3.2 9.7 0.00 0.74 0.56 64 1021.0
20210919154015 20 315 3.2 6.4 0.00 0.74 0.56 63 1020.9
20210919153515 20 315 1.6 4.8 0.00 0.74 0.56 66 1021.0
20210919153015 20 315 3.2 8.0 0.00 0.74 0.56 67 1020.9
20210919152515 20 23 1.6 8.0 0.00 0.74 0.56 64 1021.0
20210919152015 20 338 3.2 8.0 0.00 0.74 0.56 61 1020.9
20210919151517 20 338 3.2 12.9 0.00 0.74 0.56 65 1021.0
20210919151015 19 23 3.2 8.0 0.00 0.74 0.56 64 1021.0
20210919150515 19 0 3.2 12.9 0.00 0.74 0.56 67 1020.9
20210919150015 19 45 4.8 14.5 0.00 0.74 0.56 64 1020.9
20210919145515 19 315 3.2 9.7 0.00 0.74 0.56 67 1020.9
20210919145015 19 338 3.2 8.0 0.00 0.74 0.56 66 1020.8
20210919144517 19 45 3.2 11.3 0.00 0.74 0.56 69 1020.8
20210919144017 19 45 1.6 6.4 0.00 0.74 0.56 68 1020.8
20210919143517 18 45 3.2 9.7 0.00 0.74 0.56 68 1020.8
20210919143017 18 68 3.2 11.3 0.00 0.74 0.56 70 1020.9
20210919142517 18 90 3.2 12.9 0.00 0.74 0.56 68 1020.9
20210919142017 18 338 3.2 16.1 0.00 0.74 0.56 71 1020.8
20210919141517 18 0 1.6 6.4 0.00 0.74 0.56 72 1020.7
20210919141017 18 338 1.6 6.4 0.00 0.74 0.56 72 1020.6
20210919140517 18 315 1.6 6.4 0.00 0.74 0.56 71 1020.7
20210919140017 18 338 1.6 4.8 0.00 0.74 0.56 72 1020.6
20210919135517 18 315 3.2 8.0 0.00 0.74 0.56 70 1020.5
20210919135017 18 293 3.2 12.9 0.00 0.74 0.56 72 1020.5
20210919134517 18 315 1.6 11.3 0.00 0.74 0.56 73 1020.4
20210919134017 18 315 1.6 9.7 0.00 0.74 0.56 73 1020.4
20210919133517 17 0.0 3.2 0.00 0.74 0.56 75 1020.4
20210919133017 17 0 1.6 12.9 0.00 0.74 0.56 73 1020.3
20210919132517 17 0 1.6 12.9 0.00 0.74 0.56 75 1020.4
20210919132017 17 338 1.6 6.4 0.00 0.74 0.56 74 1020.5
20210919131517 17 0.0 4.8 0.00 0.74 0.56 79 1020.5
20210919131017 17 23 1.6 8.0 0.00 0.74 0.56 78 1020.5
20210919130517 17 23 1.6 6.4 0.00 0.74 0.56 79 1020.5
20210919130017 17 338 1.6 8.0 0.00 0.74 0.56 78 1020.5
20210919125517 17 315 1.6 8.0 0.00 0.74 0.56 79 1020.4
20210919125017 17 338 1.6 8.0 0.00 0.74 0.56 79 1020.4
20210919124517 17 338 1.6 8.0 0.00 0.74 0.56 80 1020.3
20210919124017 17 0.0 3.2 0.00 0.74 0.56 82 1020.2
20210919123517 16 0.0 1.6 0.00 0.74 0.56 83 1020.2
20210919123016 16 0.0 1.6 0.00 0.74 0.56 83 1020.2
20210919122517 16 0.0 4.8 0.00 0.74 0.56 84 1020.1
20210919122017 16 0.0 3.2 0.00 0.74 0.56 85 1020.1
20210919121517 16 0.0 1.6 0.00 0.74 0.56 85 1020.1
20210919121017 16 0.0 3.2 0.00 0.74 0.56 85 1020.1
20210919120517 16 0.0 1.6 0.00 0.74 0.56 85 1020.0
20210919120017 16 0.0 3.2 0.00 0.74 0.56 85 1019.9
20210919115517 16 0.0 3.2 0.00 0.74 0.56 86 1019.9
20210919115017 16 0.0 1.6 0.00 0.74 0.56 86 1019.8
20210919114516 16 23 1.6 4.8 0.00 0.74 0.56 86 1019.8
20210919114016 16 0.0 4.8 0.00 0.74 0.56 86 1019.7
20210919113517 16 0.0 3.2 0.00 0.74 0.56 87 1019.7
20210919113016 16 0.0 3.2 0.00 0.74 0.56 87 1019.6
20210919112516 16 0.0 3.2 0.00 0.74 0.56 87 1019.5
20210919112017 16 338 1.6 4.8 0.00 0.74 0.56 87 1019.5
20210919111517 16 0.0 4.8 0.00 0.74 0.56 87 1019.4
20210919111017 16 338 1.6 3.2 0.00 0.74 0.56 87 1019.2
20210919110517 16 0.0 0.0 0.00 0.74 0.56 87 1019.1
20210919110017 16 0.0 1.6 0.00 0.74 0.56 87 1019.0
20210919105516 16 0.0 1.6 0.00 0.74 0.56 87 1018.9
20210919105016 16 0.0 3.2 0.00 0.74 0.56 87 1018.9
20210919104516 16 0.0 3.2 0.00 0.74 0.56 87 1018.7
20210919104017 16 0.0 1.6 0.00 0.74 0.56 88 1018.7
20210919103516 16 0.0 1.6 0.00 0.74 0.56 88 1018.6
20210919103017 16 0.0 1.6 0.00 0.74 0.56 88 1018.5
20210919102516 16 0.0 1.6 0.00 0.74 0.56 88 1018.4
20210919102016 16 0.0 1.6 0.00 0.74 0.56 88 1018.3
20210919101516 16 0.0 0.0 0.00 0.74 0.56 88 1018.3
20210919101016 16 0.0 1.6 0.00 0.74 0.56 88 1018.2
20210919100516 16 0.0 1.6 0.00 0.74 0.56 88 1018.1
20210919100017 16 0.0 1.6 0.00 0.74 0.56 88 1018.0
20210919095516 16 0.0 1.6 0.00 0.74 0.56 88 1018.0
20210919095016 16 0.0 1.6 0.00 0.74 0.56 88 1017.9
20210919094516 16 0.0 1.6 0.00 0.74 0.56 88 1017.9
20210919094016 16 0.0 3.2 0.00 0.74 0.56 88 1017.9
20210919093516 16 0.0 3.2 0.00 0.74 0.56 88 1017.8
20210919093016 16 315 1.6 3.2 0.00 0.74 0.56 89 1017.8
20210919092516 16 0.0 3.2 0.00 0.74 0.56 89 1017.8
20210919092017 17 0.0 3.2 0.00 0.74 0.56 89 1017.7
20210919091516 17 0.0 3.2 0.00 0.74 0.56 89 1017.6
20210919091016 17 0.0 1.6 0.00 0.74 0.56 89 1017.5
20210919090516 17 0.0 1.6 0.00 0.74 0.56 89 1017.4
20210919090016 17 338 1.6 3.2 0.00 0.74 0.56 89 1017.3
20210919085516 17 0.0 1.6 0.00 0.74 0.56 89 1017.2
20210919085016 17 0.0 1.6 0.00 0.74 0.56 89 1017.1
20210919084516 17 0.0 1.6 0.00 0.74 0.56 89 1017.1
20210919084016 17 0.0 1.6 0.00 0.74 0.56 89 1017.1
20210919083516 17 0.0 0.0 0.00 0.74 0.56 89 1017.0
20210919083016 17 0.0 0.0 0.00 0.74 0.56 89 1017.0
20210919082517 17 0.0 6.4 0.00 0.74 0.56 89 1016.9
20210919082016 17 0.0 6.4 0.00 0.74 0.56 89 1016.9
20210919081516 17 0.0 0.0 0.00 0.74 0.56 89 1016.8
20210919081016 17 0.0 0.0 0.03 0.74 0.56 89 1016.7
20210919080516 17 0.0 3.2 0.03 0.74 0.56 89 1016.6
20210919080016 17 315 1.6 3.2 0.03 0.74 0.56 89 1016.5
20210919075516 18 0.0 1.6 0.03 0.74 0.56 89 1016.4
20210919075016 18 0.0 3.2 0.03 0.74 0.56 90 1016.5
20210919074516 18 0.0 1.6 0.03 0.74 0.56 90 1016.5
20210919074016 18 0.0 1.6 0.10 0.74 0.56 90 1016.5
20210919073516 18 0.0 1.6 0.15 0.74 0.56 90 1016.5
20210919073016 18 0.0 1.6 0.20 0.74 0.56 90 1016.5
20210919072516 18 0.0 3.2 0.20 0.74 0.56 90 1016.5
20210919072016 18 0.0 3.2 0.23 0.74 0.56 91 1016.4
20210919071516 18 0.0 3.2 0.23 0.74 0.56 91 1016.4
20210919071016 18 0.0 3.2 0.28 0.71 0.53 91 1016.5
20210919070516 18 0.0 1.6 0.36 0.71 0.53 91 1016.4
20210919070016 18 0.0 0.0 0.43 0.71 0.53 91 1016.5
20210919065516 18 0.0 1.6 0.46 0.71 0.53 91 1016.5
20210919065016 19 0.0 1.6 0.48 0.71 0.53 91 1016.4
20210919064516 19 0.0 1.6 0.48 0.71 0.53 91 1016.5
20210919064016 19 0.0 1.6 0.41 0.64 0.46 91 1016.6
20210919063516 19 0.0 1.6 0.36 0.58 0.41 91 1016.6
20210919063016 19 0.0 0.0 0.33 0.53 0.36 91 1016.5
20210919062516 19 0.0 0.0 0.33 0.53 0.36 91 1016.5
20210919062016 19 0.0 1.6 0.33 0.51 0.33 91 1016.5
20210919061516 19 0.0 1.6 0.33 0.51 0.33 91 1016.5
20210919061016 19 0.0 0.0 0.25 0.43 0.25 91 1016.5
20210919060516 19 338 1.6 4.8 0.18 0.36 0.18 91 1016.5
20210919060016 19 0.0 0.0 0.10 0.28 0.10 91 1016.6
20210919055516 19 0.0 1.6 0.08 0.25 0.08 91 1016.5
20210919055016 19 0.0 0.0 0.05 0.23 0.05 91 1016.5
20210919054516 19 0.0 1.6 0.05 0.23 0.05 91 1016.4
20210919054016 19 0.0 3.2 0.05 0.23 0.05 91 1016.4
20210919053516 20 0.0 1.6 0.05 0.23 0.05 91 1016.3
20210919053016 20 0.0 3.2 0.03 0.20 0.03 91 1016.3
20210919052516 20 0.0 3.2 0.03 0.20 0.03 91 1016.3
20210919052016 20 0.0 3.2 0.00 0.18 0.00 91 1016.3
20210919051516 20 0.0 3.2 0.00 0.18 0.00 91 1016.3
20210919051016 20 0.0 3.2 0.00 0.18 0.00 92 1016.3
20210919050516 20 0.0 3.2 0.00 0.18 0.00 91 1016.3
20210919050016 20 0.0 0.0 0.00 0.18 0.00 91 1016.3
20210919045516 19 0.0 0.0 0.00 0.18 0.00 91 1016.3
20210919045016 19 0.0 0.0 0.00 0.18 0.00 91 1016.3
20210919044516 19 0.0 0.0 0.00 0.18 0.00 91 1016.3
20210919044016 19 0.0 0.0 0.00 0.18 0.00 91 1016.2
20210919043516 19 0.0 0.0 0.00 0.18 0.00 91 1016.0
20210919043016 19 0.0 0.0 0.00 0.18 0.00 91 1016.0
20210919042516 19 0.0 0.0 0.00 0.18 0.00 91 1015.9
20210919042016 19 0.0 0.0 0.00 0.18 0.00 91 1015.9
20210919041516 20 0.0 0.0 0.00 0.18 0.00 91 1015.8